x

Pt Arena - 19nm North Of Point Arena, Ca (46014) Wave Buoy

1:50am - Fri 1st Aug 2014 All times are PDT. -7 hours from GMT.

  • Sig Wave height 6.2ft
  • Peak Period 7s
  • Average Period 6s
  • Wind
    20mph, 25mph gusts
  • Sea Temp 52°f
  • Air Temp 54°f
  • Sea Pressure 1013.6mb
  • Pt Arena - 19nm North Of Point Arena, Ca
  • Pt Arena - 19nm North Of Point Arena, Ca

More Historic Weather Station data

Upgrade to MSW Pro to gain access to the past 30 days of data for over 8000 Wavebouys and Weather Stations around the globe.

Join Pro

Comparision Forecast

View Surf forecast
   
Fri 08/01 1:50am 6ft 7s 6s 20 25 mph 1013.6mb 52f 54f
12:50am  -   -   -  16 20 mph 1013.9mb 53f 54f
Thu 07/31 11:50pm 5.5ft 7s 5s 18 22 mph 1014mb 53f 55f
10:50pm 6ft 8s 5s 16 18 mph 1014.6mb 53f 55f
9:50pm 4.5ft 7s 5s 16 20 mph 1014.6mb 53f 55f
8:50pm 4.5ft 6s 5s 16 18 mph 1014.4mb 53f 55f
7:50pm 5ft 8s 5s 16 18 mph 1014.4mb 53f 55f
6:50pm 4.5ft 7s 5s 13 16 mph 1014.5mb 54f 55f
5:50pm 4.5ft 7s 5s 16 18 mph 1014.8mb 53f 55f
4:50pm 4ft 6s 5s 13 16 mph 1015.2mb 53f 54f
3:50pm 4.5ft 7s 5s 9 11 mph 1015.6mb 53f 53f
2:50pm 4.5ft 7s 6s 9 13 mph 1015.9mb 53f 52f
1:50pm 4.5ft 7s 6s 11 13 mph 1016.1mb 53f 52f
12:50pm 4.5ft 7s 6s 7 9 mph 1016.2mb 53f 51f
11:50am 4.5ft 7s 6s 7 9 mph 1016.4mb 52f 52f
10:50am 4.5ft 7s 5s 7 9 mph 1016.3mb 52f 52f
9:50am 4.5ft 6s 5s 9 11 mph 1016.1mb 53f 52f
8:50am 4.5ft 7s 5s 13 18 mph 1015.9mb 52f 52f
7:50am 5.5ft 7s 5s 16 20 mph 1015.4mb 52f 52f
6:50am 5ft 7s 5s 18 22 mph 1014.8mb 52f 51f
5:50am 5.5ft 7s 5s 18 22 mph 1014.4mb 52f 52f
4:50am 5ft 7s 5s 18 22 mph 1014.6mb 52f 52f
3:50am 4.5ft 7s 5s 20 25 mph 1014.6mb 52f 53f
2:50am  -   -   -  11 13 mph 1015.1mb 53f 52f
1:50am 5ft 7s 6s 18 20 mph 1014.8mb 53f 51f
12:50am 6ft 7s 6s 11 16 mph 1015.1mb 53f 52f
Wed 07/30 10:50pm 5.5ft 7s 6s 16 18 mph 1015.4mb 53f 53f
9:50pm 6ft 7s 6s 18 22 mph 1015.8mb 53f 53f
8:50pm  -   -   -  16
mph
- - 53f
7:50pm 5ft 8s 6s 16 20 mph 1015.8mb 53f 54f
6:50pm  -   -   -  16 18 mph 1015.8mb 53f 53f
5:50pm 5ft 7s 5s 16 18 mph 1015.9mb 53f 53f
4:50pm 5ft 7s 5s 16 20 mph 1016.2mb 53f 53f
3:50pm 5.5ft 8s 6s 16 18 mph 1016.8mb 53f 53f
2:50pm 5ft 8s 6s 16 18 mph 1016.8mb 53f 52f
1:50pm 6ft 8s 6s 13 16 mph 1017mb 53f 52f
12:50pm 6ft 8s 6s 13 16 mph 1016.7mb 53f 51f
11:50am 6ft 8s 6s 13 18 mph 1016.9mb 53f 52f
10:50am  -   -   -  13 16 mph 1016.6mb 53f 52f
9:50am 7ft 8s 6s 13 18 mph 1016.8mb 53f 52f
8:50am 6.5ft 8s 6s 16 25 mph 1017.1mb 53f 53f
7:50am  -   -   -  20 25 mph 1016.6mb 53f 53f
6:50am 7ft 8s 6s 20 25 mph 1016.4mb 53f 52f
5:50am 5.5ft 8s 5s 20 25 mph 1015.7mb 53f 53f
4:50am 6ft 8s 5s 20 25 mph 1015.5mb 53f 53f
3:50am 5.5ft 8s 5s 25 29 mph 1015.1mb 53f 53f
2:50am 5ft 7s 5s 20 25 mph 1015.5mb 54f 53f
1:50am 5ft 8s 5s 16 20 mph 1015.7mb 54f 53f
12:50am 5.5ft 7s 6s 18 22 mph 1016.1mb 54f 53f
Tue 07/29 11:50pm 7ft 8s 6s 16 20 mph 1016.3mb 54f 52f
10:50pm 6ft 7s 6s 20 25 mph 1016.5mb 54f 53f
9:50pm 6.5ft 8s 6s 18 22 mph 1017mb 54f 53f
8:50pm 6ft 7s 5s 20 25 mph 1016.8mb 54f 53f
6:50pm 5ft 8s 5s 20 22 mph 1017.1mb 54f 54f
5:50pm 5ft 7s 5s 18 22 mph 1017.4mb 55f 54f
4:50pm 5ft 8s 5s 18 20 mph 1017.8mb 55f 53f
3:50pm 4.5ft 7s 5s 18 20 mph 1018.2mb 55f 54f
2:50pm 4.5ft 8s 6s 13 18 mph 1018.5mb 55f 53f
1:50pm 5ft 8s 6s 11 13 mph 1018.7mb 55f 53f
12:50pm 4.5ft 8s 6s 11 16 mph 1018.7mb 55f 52f
11:50am 4.5ft 7s 6s 11 13 mph 1018.7mb 55f 53f
10:50am 5ft 8s 6s 7 9 mph 1018.7mb 55f 53f
9:50am 4.5ft 7s 6s 9 11 mph 1018.9mb 55f 52f
8:50am 4.5ft 8s 6s 7 9 mph 1019.1mb 54f 51f
7:50am 4.5ft 6s 5s 7
mph
1018.9mb 54f 51f
6:50am 4.5ft 8s 5s 9 13 mph 1018.3mb 54f 52f
5:50am 4.5ft 8s 6s 9 13 mph 1017.9mb 54f 53f
4:50am  -   -   -  11 13 mph 1017.8mb 54f 53f
3:50am 4.5ft 8s 6s 9 11 mph 1017.8mb 54f 52f
2:50am 4.5ft 8s 6s 7 9 mph 1018mb 54f 52f
1:50am 4.5ft 8s 6s 7 9 mph 1017.9mb 54f 52f
12:50am 4.5ft 8s 6s 4
mph
1017.9mb 54f 52f
Mon 07/28 11:50pm 4.5ft 8s 6s 7 9 mph 1018mb 55f 52f
10:50pm 4.5ft 7s 6s 7 11 mph 1018.2mb 55f 53f
9:50pm 4.5ft 8s 6s 9 11 mph 1018.4mb 55f 53f
8:50pm 4.5ft 8s 6s 9 13 mph 1018.1mb 55f 53f
7:50pm 4.5ft 8s 6s 7 9 mph 1018.1mb 55f 53f
6:50pm 4.5ft 8s 7s 4
mph
1018.1mb 55f 52f
5:50pm 4.5ft 8s 6s 4 7 mph 1018.3mb 55f 52f
4:50pm 5ft 8s 7s 7
mph
1018.3mb 56f 52f
3:50pm 5ft 8s 7s 2 4 mph 1018.4mb 56f 53f
2:50pm 5ft 8s 6s 4
mph
1018.6mb 55f 53f
1:50pm 5ft 8s 6s  -  2 mph 1018.4mb 56f 53f
12:50pm 4.5ft 8s 6s  -  2 mph 1018.5mb 55f 52f
11:50am 5ft 8s 6s  -  2 mph 1018.3mb 55f 52f
10:50am 4.5ft 8s 6s 7
mph
1018mb 55f 52f